| time (UTC) | temp F | wind direction | speed MPH | gust MPH | rain 1hr in | rain 24hr in | rain mn in | humidity % | barometer mb |
| 20260901000036 | 62 | 0 | 0.0 | 0.0 | 0.00 | 0.00 | 0.00 | 71 | |
| 20260831235026 | 63 | 0 | 0.0 | 0.0 | 0.00 | 0.00 | 0.04 | 70 | |
| 20260831234026 | 64 | 0 | 0.0 | 0.0 | 0.00 | 0.00 | 0.04 | 69 | |
| 20260831232025 | 64 | 0 | 0.0 | 0.0 | 0.00 | 0.00 | 0.04 | 67 | |
| 20260831231028 | 65 | 0 | 0.0 | 0.0 | 0.00 | 0.00 | 0.04 | 66 | |
| 20260831225031 | 65 | 0 | 0.0 | 0.0 | 0.00 | 0.00 | 0.04 | 66 | |
| 20260831224027 | 66 | 0 | 0.0 | 0.0 | 0.00 | 0.00 | 0.04 | 67 | |
| 20260831223029 | 66 | 0 | 0.0 | 0.0 | 0.00 | 0.00 | 0.04 | 68 | |
| 20260831222030 | 66 | 0 | 0.0 | 0.0 | 0.00 | 0.00 | 0.04 | 68 | |
| 20260831221025 | 66 | 0 | 0.0 | 0.0 | 0.00 | 0.00 | 0.04 | 69 | |
| 20260831220055 | 66 | 0 | 0.0 | 0.0 | 0.00 | 0.00 | 0.04 | 70 | |
| 20260831215035 | 66 | 0 | 0.0 | 0.0 | 0.00 | 0.00 | 0.04 | 70 | |
| 20260831212023 | 65 | 0 | 0.0 | 0.0 | 0.00 | 0.00 | 0.04 | 72 | |
| 20260831211021 | 64 | 0 | 0.0 | 0.0 | 0.00 | 0.00 | 0.04 | 73 | |
| 20260831210034 | 64 | 0 | 0.0 | 0.0 | 0.00 | 0.00 | 0.04 | 74 | |
| 20260831205034 | 64 | 0 | 0.0 | 0.0 | 0.00 | 0.00 | 0.04 | 73 | |
| 20260831204027 | 64 | 0 | 0.0 | 0.0 | 0.00 | 0.00 | 0.04 | 73 | |
| 20260831203031 | 64 | 0 | 0.0 | 0.0 | 0.00 | 0.00 | 0.04 | 73 | |
| 20260831202025 | 64 | 0 | 0.0 | 0.0 | 0.00 | 0.00 | 0.04 | 72 | |
| 20260831201019 | 64 | 0 | 0.0 | 0.0 | 0.00 | 0.00 | 0.04 | 71 | |
| 20260831200034 | 65 | 0 | 0.0 | 0.0 | 0.00 | 0.00 | 0.04 | 71 | |
| 20260831195022 | 65 | 0 | 0.0 | 0.0 | 0.00 | 0.00 | 0.04 | 70 | |
| 20260831194032 | 65 | 0 | 0.0 | 0.0 | 0.00 | 0.00 | 0.04 | 70 | |
| 20260831193028 | 65 | 0 | 0.0 | 0.0 | 0.00 | 0.00 | 0.04 | 69 | |
| 20260831191034 | 67 | 0 | 0.0 | 0.0 | 0.00 | 0.00 | 0.04 | 66 | |
| 20260831190044 | 68 | 0 | 0.0 | 0.0 | 0.00 | 0.00 | 0.04 | 64 | |
| 20260831184027 | 68 | 0 | 0.0 | 0.0 | 0.00 | 0.00 | 0.04 | 62 | |
| 20260831183032 | 69 | 0 | 0.0 | 0.0 | 0.00 | 0.00 | 0.04 | 60 | |
| 20260831182023 | 69 | 0 | 0.0 | 0.0 | 0.00 | 0.00 | 0.04 | 60 | |
| 20260831181031 | 70 | 0 | 0.0 | 0.0 | 0.00 | 0.00 | 0.04 | 58 | |
| 20260831180033 | 71 | 0 | 0.0 | 0.0 | 0.00 | 0.00 | 0.04 | 57 | |
| 20260831175021 | 71 | 0 | 0.0 | 0.0 | 0.00 | 0.00 | 0.04 | 56 | |
| 20260831174030 | 71 | 0 | 0.0 | 0.0 | 0.00 | 0.00 | 0.04 | 56 | |
| 20260831173028 | 71 | 0 | 0.0 | 0.0 | 0.00 | 0.00 | 0.04 | 56 | |
| 20260831172025 | 72 | 0 | 0.0 | 0.0 | 0.00 | 0.00 | 0.04 | 56 | |
| 20260831171034 | 72 | 0 | 0.0 | 0.0 | 0.00 | 0.00 | 0.04 | 55 | |
| 20260831170034 | 73 | 0 | 0.0 | 0.0 | 0.00 | 0.00 | 0.04 | 54 | |
| 20260831165023 | 74 | 0 | 0.0 | 0.0 | 0.00 | 0.00 | 0.04 | 53 | |
| 20260831164022 | 74 | 0 | 0.0 | 0.0 | 0.00 | 0.00 | 0.04 | 52 | |
| 20260831163026 | 75 | 0 | 0.0 | 0.0 | 0.00 | 0.00 | 0.04 | 51 | |
| 20260831162034 | 75 | 0 | 0.0 | 0.0 | 0.00 | 0.00 | 0.04 | 51 | |
| 20260831161035 | 75 | 0 | 0.0 | 0.0 | 0.00 | 0.00 | 0.04 | 51 | |
| 20260831160034 | 75 | 0 | 0.0 | 0.0 | 0.00 | 0.00 | 0.04 | 51 | |
| 20260831155019 | 75 | 0 | 0.0 | 0.0 | 0.00 | 0.00 | 0.04 | 49 | |
| 20260831153037 | 76 | 0 | 0.0 | 0.0 | 0.00 | 0.00 | 0.04 | 48 | |
| 20260831152033 | 77 | 0 | 0.0 | 0.0 | 0.00 | 0.00 | 0.04 | 48 | |
| 20260831151032 | 76 | 0 | 0.0 | 0.0 | 0.00 | 0.00 | 0.04 | 50 | |
| 20260831150035 | 77 | 0 | 0.0 | 0.0 | 0.00 | 0.00 | 0.04 | 50 | |
| 20260831145027 | 77 | 0 | 0.0 | 0.0 | 0.00 | 0.00 | 0.04 | 52 | |
| 20260831144028 | 77 | 0 | 0.0 | 0.0 | 0.00 | 0.00 | 0.04 | 52 | |
| 20260831143025 | 77 | 0 | 0.0 | 0.0 | 0.00 | 0.00 | 0.04 | 52 | |
| 20260831142034 | 77 | 0 | 0.0 | 0.0 | 0.00 | 0.00 | 0.04 | 52 | |
| 20260831141034 | 77 | 0 | 0.0 | 0.0 | 0.00 | 0.00 | 0.04 | 52 | |
| 20260831140035 | 79 | 0 | 0.0 | 0.0 | 0.00 | 0.00 | 0.04 | 51 | |
| 20260831135029 | 80 | 0 | 0.0 | 0.0 | 0.00 | 0.00 | 0.04 | 49 | |
| 20260831134026 | 80 | 0 | 0.0 | 0.0 | 0.00 | 0.00 | 0.04 | 49 | |
| 20260831133036 | 80 | 0 | 0.0 | 0.0 | 0.00 | 0.00 | 0.04 | 50 | |
| 20260831131025 | 78 | 0 | 0.0 | 0.0 | 0.00 | 0.00 | 0.04 | 53 | |
| 20260831130032 | 78 | 0 | 0.0 | 0.0 | 0.00 | 0.00 | 0.04 | 54 | |
| 20260831125030 | 79 | 0 | 0.0 | 0.0 | 0.00 | 0.00 | 0.04 | 55 | |
| 20260831124032 | 80 | 0 | 0.0 | 0.0 | 0.00 | 0.00 | 0.04 | 55 | |
| 20260831122024 | 80 | 0 | 0.0 | 0.0 | 0.00 | 0.00 | 0.04 | 54 | |
| 20260831121021 | 83 | 0 | 0.0 | 0.0 | 0.00 | 0.00 | 0.04 | 51 | |
| 20260831120032 | 82 | 0 | 0.0 | 0.0 | 0.00 | 0.00 | 0.04 | 52 | |
| 20260831115021 | 82 | 0 | 0.0 | 0.0 | 0.00 | 0.00 | 0.04 | 52 | |
| 20260831114022 | 82 | 0 | 0.0 | 0.0 | 0.00 | 0.00 | 0.04 | 52 | |
| 20260831112026 | 82 | 0 | 0.0 | 0.0 | 0.00 | 0.00 | 0.04 | 53 | |
| 20260831111020 | 82 | 0 | 0.0 | 0.0 | 0.00 | 0.00 | 0.04 | 52 | |
| 20260831110032 | 82 | 0 | 0.0 | 0.0 | 0.00 | 0.00 | 0.04 | 52 | |
| 20260831105032 | 81 | 0 | 0.0 | 0.0 | 0.00 | 0.00 | 0.04 | 53 | |
| 20260831102033 | 80 | 0 | 0.0 | 0.0 | 0.00 | 0.00 | 0.04 | 55 | |
| 20260831101026 | 80 | 0 | 0.0 | 0.0 | 0.00 | 0.00 | 0.04 | 54 | |
| 20260831100037 | 80 | 0 | 0.0 | 0.0 | 0.00 | 0.00 | 0.04 | 55 | |
| 20260831095032 | 80 | 0 | 0.0 | 0.0 | 0.00 | 0.00 | 0.04 | 56 | |
| 20260831094032 | 79 | 0 | 0.0 | 0.0 | 0.00 | 0.00 | 0.04 | 58 | |
| 20260831093039 | 78 | 0 | 0.0 | 0.0 | 0.00 | 0.00 | 0.04 | 58 | |
| 20260831092035 | 79 | 0 | 0.0 | 0.0 | 0.00 | 0.00 | 0.04 | 59 | |
| 20260831085022 | 75 | 0 | 0.0 | 0.0 | 0.00 | 0.00 | 0.04 | 64 | |
| 20260831084035 | 74 | 0 | 0.0 | 0.0 | 0.00 | 0.00 | 0.04 | 64 | |
| 20260831083028 | 75 | 0 | 0.0 | 0.0 | 0.00 | 0.00 | 0.04 | 63 | |
| 20260831082025 | 78 | 0 | 0.0 | 0.0 | 0.00 | 0.00 | 0.04 | 63 | |
| 20260831075019 | 75 | 0 | 0.0 | 0.0 | 0.00 | 0.00 | 0.04 | 69 | |
| 20260831074026 | 73 | 0 | 0.0 | 0.0 | 0.00 | 0.00 | 0.04 | 71 | |
| 20260831072020 | 69 | 0 | 0.0 | 0.0 | 0.00 | 0.00 | 0.04 | 75 | |
| 20260831065032 | 70 | 0 | 0.0 | 0.0 | 0.00 | 0.00 | 0.04 | 77 | |
| 20260831064022 | 68 | 0 | 0.0 | 0.0 | 0.00 | 0.00 | 0.04 | 79 | |
| 20260831062033 | 65 | 0 | 0.0 | 0.0 | 0.00 | 0.00 | 0.04 | 83 | |
| 20260831061028 | 64 | 0 | 0.0 | 0.0 | 0.00 | 0.00 | 0.04 | 85 | |
| 20260831060038 | 64 | 0 | 0.0 | 0.0 | 0.00 | 0.00 | 0.04 | 85 | |
| 20260831055024 | 64 | 0 | 0.0 | 0.0 | 0.00 | 0.00 | 0.04 | 87 | |
| 20260831054025 | 63 | 0 | 0.0 | 0.0 | 0.00 | 0.00 | 0.04 | 87 | |
| 20260831052033 | 63 | 0 | 0.0 | 0.0 | 0.00 | 0.00 | 0.04 | 88 | |
| 20260831051020 | 63 | 0 | 0.0 | 0.0 | 0.00 | 0.00 | 0.04 | 88 | |
| 20260831050040 | 63 | 0 | 0.0 | 0.0 | 0.00 | 0.00 | 0.04 | 88 | |
| 20260831045023 | 63 | 0 | 0.0 | 0.0 | 0.00 | 0.00 | 0.04 | 88 | |
| 20260831042035 | 63 | 0 | 0.0 | 0.0 | 0.04 | 0.00 | 0.04 | 86 | |
| 20260831035030 | 64 | 0 | 0.0 | 0.0 | 0.04 | 0.00 | 0.04 | 86 | |
| 20260831034034 | 64 | 0 | 0.0 | 0.0 | 0.04 | 0.00 | 0.04 | 85 | |
| 20260831033034 | 65 | 0 | 0.0 | 0.0 | 0.03 | 0.00 | 0.03 | 86 | |
| 20260831032029 | 65 | 0 | 0.0 | 0.0 | 0.00 | 0.00 | 0.00 | 85 | |
| 20260831031028 | 66 | 0 | 0.0 | 0.0 | 0.00 | 0.00 | 0.00 | 84 | |
| 20260831030047 | 66 | 0 | 0.0 | 0.0 | 0.00 | 0.00 | 0.00 | 84 | |
| 20260831025021 | 66 | 0 | 0.0 | 0.0 | 0.00 | 0.00 | 0.00 | 85 | |
| 20260831024033 | 66 | 0 | 0.0 | 0.0 | 0.00 | 0.00 | 0.00 | 84 | |
| 20260831023026 | 66 | 0 | 0.0 | 0.0 | 0.00 | 0.00 | 0.00 | 84 | |
| 20260831022033 | 66 | 0 | 0.0 | 0.0 | 0.00 | 0.00 | 0.00 | 84 | |
| 20260831021018 | 66 | 0 | 0.0 | 0.0 | 0.00 | 0.00 | 0.00 | 84 | |
| 20260831020044 | 66 | 0 | 0.0 | 0.0 | 0.00 | 0.00 | 0.00 | 84 | |
| 20260831014019 | 66 | 0 | 0.0 | 0.0 | 0.00 | 0.00 | 0.00 | 84 | |
| 20260831013023 | 66 | 0 | 0.0 | 0.0 | 0.00 | 0.00 | 0.00 | 84 | |
| 20260831012025 | 66 | 0 | 0.0 | 0.0 | 0.00 | 0.00 | 0.00 | 84 | |
| 20260831011028 | 66 | 0 | 0.0 | 0.0 | 0.00 | 0.00 | 0.00 | 84 | |
| 20260831005021 | 66 | 0 | 0.0 | 0.0 | 0.00 | 0.00 | 0.00 | 85 | |
| 20260831004034 | 66 | 0 | 0.0 | 0.0 | 0.00 | 0.00 | 0.00 | 84 | |
| 20260831003033 | 66 | 0 | 0.0 | 0.0 | 0.00 | 0.00 | 0.00 | 84 | |
| 20260831002026 | 67 | 0 | 0.0 | 0.0 | 0.00 | 0.00 | 0.00 | 84 | |
| 20260831001020 | 67 | 0 | 0.0 | 0.0 | 0.00 | 0.00 | 0.00 | 84 |